Showing default

UVSQ-SAT NG, 63251

Orbit data source: Space-Track

UVSQ-SAT NG, 63251 is a payload satellite owned by LATMOS (FR) in SSO that was launched on Sat, 15 Mar 2025 UTC via an FALCON 9 launch vehicle from the Air Force Western Test Range (AFWTR). Payload-class satellites include a variety of spacecraft equipped with specific instruments for various scientific and technological missions. These include communications satellites like Starlink; space stations such as the ISS; scientific satellites like the Hubble; Earth observation satellites from companies like Planet Labs, Umbra, and HawkEye 360; GPS; miniature CubeSats for education and research; and military/defense satellites.

Loading next visibility...
Identifier
63251, 2025-052AT
Orbit
SSO
Country
Flag of FRFR
Related business
Manufacturer
LATMOS
Mission
Operational Civil Earth Obs Sci
Bus & Motor
CUBESAT 6U, Unknown motor
Mass
12 kg wet, 12 kg dry
Launch date (UTC)
Icon of a cake. It is the launch day of the satellite!2025-03-15 (1 year ago)
Launch vehicle
FALCON 9
Launch site
Air Force Western Test Range (AFWTR)
Object type
Payload
Rocket body
Debris
Shape & HBR
Box + 2 Pan, 1.0 m
Radar Cross Section
0.098 m², Small (<0.1 m²)

Expand to show TLE details & history
Last TLE update: 8 hours ago

TLE from 8 hours ago
0 UVSQ-SAT NG
1 63251U 25052AT  26074.63378940  .00002738  00000-0  25623-3 0  9991
2 63251  97.6968 327.8939 0003230 150.8471 209.2931 14.94904233 54654
Epoch: 2026-03-15T15:12Z
TLE epoch observation values (Epoch: 2026-03-15T15:12:39.404Z)
Latitude
0.00005°
Longitude
-73.5081°
Altitude
587.679 km
Speed
7.565 km/s
True Right ascension
21h 51m 34s
True Declination
0° 00' 00"
Sunlit
Object was in daylight at epoch
Visualization orbit readout
Latitude
Unknown
Longitude
Unknown
Altitude
Unknown
Speed
Unknown
Apparent Right ascension
Unknown
Apparent Declination
Unknown
Sunlit
N/A
Visualization observer readout
Local Sidereal Time
04:00:28
Azimuth
Unknown
Elevation
Unknown
Doppler factor
Unknown
Orbital elements
Apogee altitude
581.929 km
Perigee altitude
577.435 km
Semi-major axis
6,957.819 km
Eccentricity
0.00032
Inclination
97.6968°
RAAN
327.8939°
Arg. of periapsis
150.8471°
True anomaly
209.275°
Mean anomaly
209.2931°
Eccentric anomaly
209.28405°
Mean motion
3.73967 °/min
Orbital period
96.27 mins
BSTAR
0.00025623
Loading maneuver chart data...
Computing Atmospheric mass density...
Loading historical data...
Loading historical data...
Loading historical data...
Loading historical data...
Loading historical data...
Loading historical data...
Loading historical data...

Documentation

Showing up to 5 results
|